sat.trackr.live / text

‹ back to catalog

GPS BIIRM-6 (PRN 07)

NORAD 32711 · 2008-012A

PAYLOAD ACTIVE UNKNOWN

§ Identity

Operator
Country
US
Launch date
2008-03-15
Launch site
AFETR
Launch vehicle
Mass (kg)
RCS (m²)
5.01

Purposes: nav

External: N2YO · Heavens-Above · Gunter

§ Orbital elements

Epoch: 2026-09-19T20:49:24.527136Z

Period
718.02 min
Inclination
54.5044°
Eccentricity
0.0211490
Mean motion
2.00552843 rev/d
Perigee alt
19,621.4 km
Apogee alt
20,744.9 km
Semi-major
26,561.3 km
B*
0.0000e+0
RAAN
146.1407°
Arg perigee
248.5929°
Mean anomaly
109.2080°
Rev number
13,565

§ Raw data

GPS BIIRM-6 (PRN 07)1 32711U 08012A   26262.86764499 -.00000017  00000+0  00000+0 0  99932 32711  54.5044 146.1407 0211490 248.5929 109.2080  2.00552843135656

JSON: /api/v1/satellites/32711 · /tle

For live sub-satellite position, see the globe view (requires WebGL).

§ Visibility from observer

Set your observer location to see the next 7 days of passes ≥ 10°. The values pass through the URL so the page stays shareable.

No JS? Fill the form by hand. The geolocation button needs JavaScript.